カタログに戻る

OBJECT A

運用中HEO
NORAD 100125·UNKNOWN·🇺🇸 United States

打ち上げ Jul 21, 2026 から Cape Canaveral Space Force Station

Loading…

次のパス (今後24時間)

TLE

最新Source: Space-Track

元期: Sep 8, 2026, 01:41 UTC

1 A0125U 26167A   26251.07072669  .00000269  00000-0  34696-1 0  9999
2 A0125  24.2385  86.6268 7570047 201.8331  89.9616  1.67714659   845

AllMySatでOBJECT Aをリアルタイム追跡

Download on the App Store